Regional Weather Roundup
Issued by NWS

Home | Current Version | Previous Version | Graphics & Text | Print | Product List | Glossary On
Versions: 1 2 3 4 5 6 7 8 9 10 11 12 13 14 15 16 17 18 19 20 21 22 23 24 25 26 27 28 29 30 31 32 33 34 35 36 37 38 39 40 41 42 43 44 45 46 47 48 49 50
000
ASUS43 KBIS 011220
RWRND

NORTH DAKOTA REGIONAL WEATHER ROUNDUP
NATIONAL WEATHER SERVICE BISMARCK ND
700 AM CDT MON SEP 01 2014

NOTE: "FAIR" INDICATES FEW OR NO CLOUDS BELOW 12,000 FEET WITH NO
SIGNIFICANT WEATHER AND/OR OBSTRUCTIONS TO VISIBILITY.


NDZ001>003-009>011-017-011300-
NORTHWEST NORTH DAKOTA

CITY           SKY/WX    TMP DP  RH WIND       PRES   REMARKS
WILLISTON      CLEAR     49  45  86 CALM      29.81S
6HR MIN TEMP:  46; 6HR MAX TEMP:  57;

MINOT          PTCLDY    52  48  86 SW6       29.73S
MINOT AFB      PTCLDY    49  49  99 W6        29.72S
$$

NDZ018>021-031>035-040>046-011300-
SOUTHWEST NORTH DAKOTA

CITY           SKY/WX    TMP DP  RH WIND       PRES   REMARKS
BISMARCK       CLEAR     50  50 100 SW6       29.78S
6HR MIN TEMP:  50; 6HR MAX TEMP:  59;

DICKINSON      CLEAR     49  45  86 W9        29.80R
GARRISON         N/A     49  48  97 NW7       29.75S
6HR MIN TEMP:  48; 6HR MAX TEMP:  55;

HETTINGER ARPT CLEAR     44  42  93 W3        29.84S
$$

NDZ004>008-012>016-024-026-027-054-011300-
NORTHEAST NORTH DAKOTA

CITY           SKY/WX    TMP DP  RH WIND       PRES   REMARKS
GRAND FORKS    PTCLDY    52  51  97 W6        29.68R
GRND FRKS AFB  MOCLDY    52  52 100 W6        29.69R
DEVILS LAKE    CLEAR     54  48  82 CALM      29.70R
$$

NDZ022-023-025-028>030-036>039-047>053-011300-
SOUTHEAST NORTH DAKOTA

CITY           SKY/WX    TMP DP  RH WIND       PRES   REMARKS
FARGO          PTCLDY    52  50  93 SW6       29.70R
6HR MIN TEMP:  51; 6HR MAX TEMP:  58;

JAMESTOWN      CLEAR     54  52  93 W3        29.74R
$$




USA.gov is the U.S. government's official web portal to all federal, state and local government web resources and services.